SCP
0 0 0 0 0 0 0 0 0 0 0 0 0 0 0 0 0 0 0 0 0 0 0 0 0 0 0 0 0 0 0 0 0 0 0 0 0 0 1 1 1 1 0
0 0 0 0 0 0 0 0 0 0 0 0 0 0 0 0 0 0 0 0 0 0 0 0 0 0 0 0 0 0 0 0 0 0 0 0 0 0 0 1 1 1 0
0 0 0 0 0 0 0 0 0 0 0 0 0 0 0 0 0 0 0 0 0 0 0 0 0 0 0 0 0 0 0 0 0 0 0 0 0 0 0 0 0 1 1
0 0 0 0 0 0 0 0 0 0 0 0 0 0 0 0 0 0 0 0 0 0 0 0 0 0 0 0 0 0 0 0 0 0 0 0 0 0 0 0 0 0 1
0 0 0 0 0 0 0 0 0 0 0 0 0 0 0 0 0 0 0 0 0 0 0 0 0 0 0 0 0 0 0 0 0 0 0 0 0 0 0 0 0 0 0
0 0 0 0 0 0 0 0 0 0 0 0 0 0 0 0 0 0 0 0 0 0 0 0 0 0 0 0 0 0 0 0 0 0 0 0 0 0 0 0 0 0 0
0 0 0 0 0 0 0 0 0 0 0 0 -0 0 0 0 0 0 0 0 0 0 0 0 0 0 0 0 0 0 0 0 0 0 0 0 0 0 0 0 0 0 0
0 0 0 0 0 0 0 0 0 0 0 0 0 -0 0 0 0 0 0 0 0 0 0 0 0 0 0 0 0 0 0 0 0 0 0 0 0 0 0 0 0 0 0
0 0 0 0 0 0 0 0 0 0 0 0 0 0 0 0 0 0 0 0 0 0 0 0 0 0 0 0 0 0 0 0 0 0 0 0 0 0 0 0 0 0 0
0 0 0 0 0 0 0 0 0 0 0 0 0 0 0 0 0 0 0 0 0 0 0 0 0 0 0 0 0 0 0 0 0 0 0 0 0 0 0 0 0 0 0
0 0 0 0 0 0 0 0 0 0 0 0 0 0 0 0 0 0 0 0 0 0 0 0 0 0 0 0 0 0 0 0 0 0 0 0 -0 -0 -0 0 0 0 0
0 0 0 0 0 0 0 0 0 0 0 0 0 0 0 0 0 0 0 0 0 0 0 0 -0 -0 -0 -0 -0 0 0 0 0 -0 0 0 0 -0 -0 -0 0 0 0
0 0 0 0 0 0 0 0 0 0 0 0 0 0 0 0 0 0 0 0 0 0 -0 0 -0 -0 -0 -0 -0 0 0 0 -0 -0 -0 -0 -0 -0 0 0 0 0 0
0 0 0 0 0 0 0 0 0 0 0 0 0 0 0 0 0 0 0 0 0 -0 -0 -0 -0 -0 0 0 0 0 -0 -0 -0 -0 0 0 0 0 0 0 0 0 0
0 0 0 0 0 0 0 0 0 0 0 0 0 0 0 0 0 0 0 0 0 -0 -0 0 -0 0 0 0 0 -0 -0 -0 -0 -0 0 0 0 0 0 0 0 0 0
0 0 0 0 0 0 0 0 0 0 0 0 0 0 0 0 0 0 0 0 0 0 0 0 0 0 0 0 0 -0 -0 -0 -0 -0 0 0 0 0 0 0 0 0 0
0 0 0 0 0 0 0 0 0 0 0 0 0 0 0 0 0 0 0 0 0 0 0 0 0 0 0 0 0 -0 -0 -0 0 0 0 0 0 0 0 0 0 0 0
0 0 0 0 0 0 0 0 0 0 0 0 0 0 0 0 0 0 0 0 0 0 0 0 0 0 0 0 0 -0 0 0 0 0 0 0 0 0 0 0 0 0 0
0 0 0 0 0 0 0 0 0 0 0 0 0 0 0 0 0 0 0 0 0 0 0 0 0 0 0 0 0 0 0 0 0 0 0 0 0 0 0 0 0 0 0
0 0 0 0 0 0 0 0 0 0 0 0 0 0 0 0 0 0 0 0 0 0 0 0 0 0 0 0 0 0 0 0 0 0 0 0 0 0 0 0 0 0 0
0 0 0 0 0 0 0 0 0 0 0 0 0 0 0 0 0 0 0 0 0 0 0 0 0 0 0 0 0 0 0 0 0 0 0 0 0 0 0 0 0 0 0
0 0 0 0 0 0 0 0 0 0 0 0 0 0 0 0 0 0 0 0 0 0 0 0 0 0 0 0 0 0 0 0 0 0 0 0 0 0 0 0 0 0 0
0 0 0 0 0 0 0 0 0 0 0 0 0 0 0 0 0 0 0 0 0 -0 0 0 0 0 0 0 0 0 0 0 0 0 0 0 0 0 0 0 0 0 0
0 0 0 0 0 0 0 0 0 0 0 0 0 0 0 0 0 0 0 0 0 0 0 0 0 0 0 0 0 0 0 0 0 0 0 0 0 0 0 0 0 0 0
0 0 0 0 0 0 0 0 0 0 0 0 0 0 0 0 0 0 0 0 0 0 0 0 0 0 0 0 0 0 0 0 0 0 0 0 0 0 0 0 0 0 0
0 0 0 0 0 0 0 0 0 0 0 0 0 0 0 0 0 0 0 0 0 0 0 0 0 0 0 0 0 0 0 0 0 0 0 0 0 0 0 0 0 0 0
Wind_Speed_500mb
31 31 29 27 26 24 25 26 28 32 33 33 34 31 28 26 25 25 23 24 26 26 26 26 30 32 33 33 34 34 31 33 34 36 45 48 48 40 39 41 45 48 51
39 36 34 32 29 26 26 30 33 34 35 35 33 31 28 23 23 24 24 21 23 26 26 25 29 29 32 35 36 34 35 37 37 38 41 46 47 50 52 48 45 47 52
45 44 38 35 31 31 33 34 35 35 36 36 34 31 28 26 24 23 19 16 17 18 20 20 19 19 23 24 26 29 33 38 42 44 45 44 51 53 55 56 53 51 52
52 47 42 38 35 33 34 35 35 38 37 38 35 32 30 26 26 20 19 11 4 5 10 12 13 16 18 19 20 21 25 29 27 31 36 47 47 54 56 57 57 56 55
55 52 46 41 37 36 37 35 35 36 37 37 38 35 31 27 21 20 10 2 18 19 17 19 24 20 18 18 18 20 28 30 29 31 32 37 44 49 52 61 62 60 57
59 55 51 46 41 38 34 33 33 35 37 39 41 41 38 26 20 9 7 24 27 24 23 22 18 20 26 33 38 37 33 35 29 29 32 33 33 32 54 59 63 66 65
61 58 55 51 44 38 32 29 29 32 34 38 44 44 35 19 7 7 38 13 29 18 14 20 26 36 42 41 43 45 33 32 41 44 36 38 35 37 49 53 57 67 73
64 61 60 56 48 41 33 27 28 32 34 34 36 41 25 19 13 45 10 24 15 26 25 35 35 45 46 43 44 46 48 53 50 39 45 49 47 49 49 51 57 60 66
69 66 64 59 52 46 35 26 28 32 31 31 29 21 12 10 56 11 39 30 47 41 42 50 47 45 47 48 43 43 43 44 43 47 53 49 45 43 49 58 58 55 60
73 71 68 63 57 49 38 30 28 35 34 31 30 28 25 29 21 35 42 58 48 55 55 55 57 56 52 49 47 48 49 50 49 50 46 43 47 59 66 63 55 59 66
78 74 71 67 63 55 44 35 28 34 35 33 33 32 30 27 27 26 62 73 65 61 60 68 66 61 55 52 54 53 59 62 63 61 64 66 60 55 56 59 62 65 66
83 79 74 71 65 59 49 38 31 33 34 33 33 34 35 32 31 32 45 59 64 71 69 67 71 68 65 58 63 66 81 86 87 87 85 81 78 75 67 60 59 62 67
91 87 80 77 72 61 52 43 35 33 36 36 34 34 34 32 32 37 45 57 60 78 67 72 62 68 64 62 75 88 92 94 96 98 97 94 89 82 79 70 70 69 71
86 84 80 77 72 65 58 48 38 34 37 39 38 36 33 32 32 34 43 53 73 60 67 55 59 73 57 85 94 97 99 99 102 104 103 103 101 99 92 80 80 79 79
84 79 79 78 74 69 61 53 43 36 40 43 42 39 35 35 35 36 41 46 51 52 71 50 65 69 95 97 100 105 107 108 108 107 105 105 106 105 100 88 86 83 82
86 79 82 81 76 70 63 55 47 41 44 46 46 41 38 37 37 39 43 47 50 58 73 86 92 98 99 107 108 112 112 112 107 104 100 99 97 95 91 84 85 86 89
88 83 85 84 79 72 65 59 53 49 49 48 47 42 40 36 37 40 46 51 56 60 84 109 98 108 107 108 109 112 114 110 104 97 88 79 76 77 78 80 83 86 88
88 84 87 86 82 76 70 65 59 54 52 49 46 43 39 37 39 42 49 55 59 61 73 102 111 110 109 107 109 112 116 111 105 101 93 80 73 72 74 75 76 79 81
90 89 91 91 88 80 75 69 63 58 55 51 46 43 39 37 40 46 50 57 60 65 69 84 111 109 108 105 110 110 118 119 110 108 100 89 78 72 71 72 76 80 81
94 95 96 93 90 83 79 75 68 61 56 52 47 44 40 37 41 47 55 58 59 63 69 77 94 107 107 107 102 107 111 99 99 103 104 86 80 79 77 74 71 70 74
96 93 94 96 93 91 87 79 72 63 59 54 49 44 42 38 43 50 54 55 57 61 63 74 91 102 107 93 84 102 108 113 110 93 103 104 96 91 91 78 77 80 84
92 91 97 100 99 96 88 81 74 66 60 55 50 47 40 41 42 47 50 46 48 50 61 69 82 88 110 99 96 97 106 108 127 100 84 106 94 108 102 98 98 95 90
91 95 103 104 102 95 88 84 76 66 60 54 51 47 39 40 44 46 43 47 43 43 51 62 79 88 107 101 106 114 108 110 126 122 106 120 108 108 105 109 97 92 89
94 99 104 104 101 97 93 86 78 67 59 54 51 42 39 41 42 39 44 47 50 53 61 64 77 86 94 98 96 107 115 116 119 115 81 103 114 101 110 110 94 83 81
96 100 101 103 102 96 92 84 74 65 57 49 45 44 39 41 33 38 41 46 53 63 67 68 76 78 76 83 92 98 106 106 122 143 93 97 129 106 101 99 95 86 82
92 99 99 100 98 96 89 80 74 62 51 51 51 42 41 31 36 34 35 43 62 69 70 72 77 84 83 81 74 62 69 85 93 113 75 73 94 87 106 101 96 89 101
Wind_Direction_500mb
235 242 248 254 258 265 275 285 292 301 307 311 311 310 303 296 292 289 288 289 287 281 280 281 281 278 274 274 276 275 269 272 274 263 254 252 250 249 256 259 260 265 263
234 241 248 253 259 264 271 280 288 294 298 305 311 311 306 299 292 291 291 290 290 288 280 278 277 280 284 287 287 283 281 273 268 266 256 246 245 245 245 248 254 260 264
234 236 242 249 254 262 273 281 290 297 303 308 314 313 306 303 296 290 290 287 288 288 284 277 277 290 294 295 297 296 294 286 280 275 272 266 251 245 244 245 250 252 257
233 235 238 240 246 256 269 279 288 294 300 305 312 314 312 307 299 296 295 304 343 297 294 289 302 302 288 290 301 319 332 331 320 303 285 266 266 259 252 249 249 251 254
232 233 234 238 243 253 267 278 287 293 297 303 309 314 313 308 293 288 263 202 325 310 316 323 317 309 305 320 311 297 304 308 303 295 293 288 281 272 267 254 251 252 251
230 231 233 234 237 245 258 272 285 293 296 302 308 314 318 303 297 278 196 316 313 329 315 320 324 326 319 310 309 310 309 310 317 297 292 284 281 279 270 265 257 254 252
229 230 231 233 235 242 254 269 284 292 297 304 310 310 320 313 266 132 319 316 320 348 334 320 313 311 309 309 304 306 303 296 298 301 308 286 278 278 278 277 270 259 255
229 230 231 231 232 237 249 266 283 288 293 306 322 330 329 316 211 312 290 321 324 323 304 308 311 308 305 308 309 308 306 306 308 311 297 297 290 286 283 274 271 267 262
228 229 230 230 231 234 241 257 282 289 294 306 318 325 327 300 317 265 315 327 323 320 319 315 318 321 319 316 313 308 304 304 309 300 302 301 302 296 281 283 278 270 263
228 229 230 230 231 233 237 246 266 283 287 296 307 311 306 305 318 314 308 319 319 319 322 322 323 325 327 322 321 320 319 317 312 310 314 304 287 289 294 289 285 281 268
228 230 230 230 230 232 234 242 257 276 279 287 299 304 300 298 297 287 306 318 317 322 326 327 327 329 326 322 322 321 321 321 317 312 307 304 306 304 298 293 287 284 282
229 229 230 231 231 232 235 241 251 268 273 279 289 297 299 299 300 293 292 302 311 318 323 321 324 326 325 326 327 327 323 319 316 313 309 307 303 299 296 293 288 286 283
230 228 228 229 231 233 235 237 245 262 275 282 290 292 292 289 294 297 297 304 308 314 321 320 322 325 323 324 324 319 316 314 312 309 306 303 301 295 288 288 286 283 280
237 233 230 229 228 230 232 235 245 260 272 280 285 286 280 281 285 292 300 309 316 314 321 317 326 318 317 317 316 313 311 309 306 302 300 299 296 292 288 285 281 277 276
239 236 235 232 229 229 231 233 239 253 268 276 278 278 277 280 285 292 299 304 308 309 309 300 312 310 308 310 312 311 309 307 303 302 302 298 293 289 285 283 281 280 277
239 235 233 232 230 230 230 231 237 245 256 264 272 272 271 276 285 292 297 300 301 300 296 301 301 304 309 311 311 310 309 307 307 306 302 297 291 287 284 284 281 278 276
240 235 231 230 230 231 230 232 237 245 253 260 265 266 267 273 281 289 293 297 297 297 297 300 303 305 307 308 310 309 307 310 311 308 308 303 295 291 287 282 278 275 273
236 235 230 229 230 229 230 233 237 244 251 257 259 261 263 271 280 285 290 293 294 296 297 300 302 304 307 309 310 310 312 313 313 313 313 310 298 292 286 283 280 278 275
234 231 229 229 229 228 229 233 236 242 250 254 255 256 257 264 277 286 291 293 295 295 297 297 300 303 308 312 313 314 314 314 314 314 310 306 301 292 285 281 278 277 277
234 231 230 228 228 228 229 231 234 239 247 251 253 252 256 267 279 289 292 293 293 297 296 296 300 305 311 316 315 314 308 304 301 302 302 295 296 293 287 283 280 279 274
234 231 228 226 227 227 228 229 232 238 243 247 250 250 257 271 281 288 291 289 295 296 302 307 307 308 305 305 302 302 298 302 300 300 300 300 300 297 293 284 277 275 281
231 229 226 226 225 226 226 228 232 236 241 245 248 249 258 270 285 288 284 289 289 295 297 295 292 289 296 299 300 298 296 297 297 301 297 296 294 294 291 286 287 284 286
228 227 225 225 224 225 225 228 233 235 239 244 248 252 262 279 283 281 284 288 291 285 278 286 288 289 296 300 301 298 292 291 288 291 291 289 289 283 285 290 289 286 286
226 225 225 225 223 222 223 227 231 233 236 240 247 257 271 279 277 280 287 293 299 304 304 303 296 296 294 297 296 295 295 292 289 289 289 279 292 284 290 291 290 285 282
223 222 224 225 223 221 222 226 229 230 234 244 253 257 268 268 281 286 289 297 298 300 303 298 293 291 291 293 292 290 286 288 286 285 285 278 282 283 283 284 287 283 279
225 223 222 223 223 221 221 225 228 230 236 242 247 254 260 274 279 284 287 300 294 298 302 301 303 302 302 305 307 294 292 289 285 287 291 279 278 280 282 281 280 275 277
Wind_Speed_850mb
31 31 29 27 26 24 25 26 28 32 33 33 34 31 28 26 25 25 23 24 26 26 26 26 30 32 33 33 34 34 31 33 34 36 45 48 48 40 39 41 45 48 51
39 36 34 32 29 26 26 30 33 34 35 35 33 31 28 23 23 24 24 21 23 26 26 25 29 29 32 35 36 34 35 37 37 38 41 46 47 50 52 48 45 47 52
45 44 38 35 31 31 33 34 35 35 36 36 34 31 28 26 24 23 19 16 17 18 20 20 19 19 23 24 26 29 33 38 42 44 45 44 51 53 55 56 53 51 52
52 47 42 38 35 33 34 35 35 38 37 38 35 32 30 26 26 20 19 11 4 5 10 12 13 16 18 19 20 21 25 29 27 31 36 47 47 54 56 57 57 56 55
55 52 46 41 37 36 37 35 35 36 37 37 38 35 31 27 21 20 10 2 18 19 17 19 24 20 18 18 18 20 28 30 29 31 32 37 44 49 52 61 62 60 57
59 55 51 46 41 38 34 33 33 35 37 39 41 41 38 26 20 9 7 24 27 24 23 22 18 20 26 33 38 37 33 35 29 29 32 33 33 32 54 59 63 66 65
61 58 55 51 44 38 32 29 29 32 34 38 44 44 35 19 7 7 38 13 29 18 14 20 26 36 42 41 43 45 33 32 41 44 36 38 35 37 49 53 57 67 73
64 61 60 56 48 41 33 27 28 32 34 34 36 41 25 19 13 45 10 24 15 26 25 35 35 45 46 43 44 46 48 53 50 39 45 49 47 49 49 51 57 60 66
69 66 64 59 52 46 35 26 28 32 31 31 29 21 12 10 56 11 39 30 47 41 42 50 47 45 47 48 43 43 43 44 43 47 53 49 45 43 49 58 58 55 60
73 71 68 63 57 49 38 30 28 35 34 31 30 28 25 29 21 35 42 58 48 55 55 55 57 56 52 49 47 48 49 50 49 50 46 43 47 59 66 63 55 59 66
78 74 71 67 63 55 44 35 28 34 35 33 33 32 30 27 27 26 62 73 65 61 60 68 66 61 55 52 54 53 59 62 63 61 64 66 60 55 56 59 62 65 66
83 79 74 71 65 59 49 38 31 33 34 33 33 34 35 32 31 32 45 59 64 71 69 67 71 68 65 58 63 66 81 86 87 87 85 81 78 75 67 60 59 62 67
91 87 80 77 72 61 52 43 35 33 36 36 34 34 34 32 32 37 45 57 60 78 67 72 62 68 64 62 75 88 92 94 96 98 97 94 89 82 79 70 70 69 71
86 84 80 77 72 65 58 48 38 34 37 39 38 36 33 32 32 34 43 53 73 60 67 55 59 73 57 85 94 97 99 99 102 104 103 103 101 99 92 80 80 79 79
84 79 79 78 74 69 61 53 43 36 40 43 42 39 35 35 35 36 41 46 51 52 71 50 65 69 95 97 100 105 107 108 108 107 105 105 106 105 100 88 86 83 82
86 79 82 81 76 70 63 55 47 41 44 46 46 41 38 37 37 39 43 47 50 58 73 86 92 98 99 107 108 112 112 112 107 104 100 99 97 95 91 84 85 86 89
88 83 85 84 79 72 65 59 53 49 49 48 47 42 40 36 37 40 46 51 56 60 84 109 98 108 107 108 109 112 114 110 104 97 88 79 76 77 78 80 83 86 88
88 84 87 86 82 76 70 65 59 54 52 49 46 43 39 37 39 42 49 55 59 61 73 102 111 110 109 107 109 112 116 111 105 101 93 80 73 72 74 75 76 79 81
90 89 91 91 88 80 75 69 63 58 55 51 46 43 39 37 40 46 50 57 60 65 69 84 111 109 108 105 110 110 118 119 110 108 100 89 78 72 71 72 76 80 81
94 95 96 93 90 83 79 75 68 61 56 52 47 44 40 37 41 47 55 58 59 63 69 77 94 107 107 107 102 107 111 99 99 103 104 86 80 79 77 74 71 70 74
96 93 94 96 93 91 87 79 72 63 59 54 49 44 42 38 43 50 54 55 57 61 63 74 91 102 107 93 84 102 108 113 110 93 103 104 96 91 91 78 77 80 84
92 91 97 100 99 96 88 81 74 66 60 55 50 47 40 41 42 47 50 46 48 50 61 69 82 88 110 99 96 97 106 108 127 100 84 106 94 108 102 98 98 95 90
91 95 103 104 102 95 88 84 76 66 60 54 51 47 39 40 44 46 43 47 43 43 51 62 79 88 107 101 106 114 108 110 126 122 106 120 108 108 105 109 97 92 89
94 99 104 104 101 97 93 86 78 67 59 54 51 42 39 41 42 39 44 47 50 53 61 64 77 86 94 98 96 107 115 116 119 115 81 103 114 101 110 110 94 83 81
96 100 101 103 102 96 92 84 74 65 57 49 45 44 39 41 33 38 41 46 53 63 67 68 76 78 76 83 92 98 106 106 122 143 93 97 129 106 101 99 95 86 82
92 99 99 100 98 96 89 80 74 62 51 51 51 42 41 31 36 34 35 43 62 69 70 72 77 84 83 81 74 62 69 85 93 113 75 73 94 87 106 101 96 89 101
Wind_Direction_850mb
235 242 248 254 258 265 275 285 292 301 307 311 311 310 303 296 292 289 288 289 287 281 280 281 281 278 274 274 276 275 269 272 274 263 254 252 250 249 256 259 260 265 263
234 241 248 253 259 264 271 280 288 294 298 305 311 311 306 299 292 291 291 290 290 288 280 278 277 280 284 287 287 283 281 273 268 266 256 246 245 245 245 248 254 260 264
234 236 242 249 254 262 273 281 290 297 303 308 314 313 306 303 296 290 290 287 288 288 284 277 277 290 294 295 297 296 294 286 280 275 272 266 251 245 244 245 250 252 257
233 235 238 240 246 256 269 279 288 294 300 305 312 314 312 307 299 296 295 304 343 297 294 289 302 302 288 290 301 319 332 331 320 303 285 266 266 259 252 249 249 251 254
232 233 234 238 243 253 267 278 287 293 297 303 309 314 313 308 293 288 263 202 325 310 316 323 317 309 305 320 311 297 304 308 303 295 293 288 281 272 267 254 251 252 251
230 231 233 234 237 245 258 272 285 293 296 302 308 314 318 303 297 278 196 316 313 329 315 320 324 326 319 310 309 310 309 310 317 297 292 284 281 279 270 265 257 254 252
229 230 231 233 235 242 254 269 284 292 297 304 310 310 320 313 266 132 319 316 320 348 334 320 313 311 309 309 304 306 303 296 298 301 308 286 278 278 278 277 270 259 255
229 230 231 231 232 237 249 266 283 288 293 306 322 330 329 316 211 312 290 321 324 323 304 308 311 308 305 308 309 308 306 306 308 311 297 297 290 286 283 274 271 267 262
228 229 230 230 231 234 241 257 282 289 294 306 318 325 327 300 317 265 315 327 323 320 319 315 318 321 319 316 313 308 304 304 309 300 302 301 302 296 281 283 278 270 263
228 229 230 230 231 233 237 246 266 283 287 296 307 311 306 305 318 314 308 319 319 319 322 322 323 325 327 322 321 320 319 317 312 310 314 304 287 289 294 289 285 281 268
228 230 230 230 230 232 234 242 257 276 279 287 299 304 300 298 297 287 306 318 317 322 326 327 327 329 326 322 322 321 321 321 317 312 307 304 306 304 298 293 287 284 282
229 229 230 231 231 232 235 241 251 268 273 279 289 297 299 299 300 293 292 302 311 318 323 321 324 326 325 326 327 327 323 319 316 313 309 307 303 299 296 293 288 286 283
230 228 228 229 231 233 235 237 245 262 275 282 290 292 292 289 294 297 297 304 308 314 321 320 322 325 323 324 324 319 316 314 312 309 306 303 301 295 288 288 286 283 280
237 233 230 229 228 230 232 235 245 260 272 280 285 286 280 281 285 292 300 309 316 314 321 317 326 318 317 317 316 313 311 309 306 302 300 299 296 292 288 285 281 277 276
239 236 235 232 229 229 231 233 239 253 268 276 278 278 277 280 285 292 299 304 308 309 309 300 312 310 308 310 312 311 309 307 303 302 302 298 293 289 285 283 281 280 277
239 235 233 232 230 230 230 231 237 245 256 264 272 272 271 276 285 292 297 300 301 300 296 301 301 304 309 311 311 310 309 307 307 306 302 297 291 287 284 284 281 278 276
240 235 231 230 230 231 230 232 237 245 253 260 265 266 267 273 281 289 293 297 297 297 297 300 303 305 307 308 310 309 307 310 311 308 308 303 295 291 287 282 278 275 273
236 235 230 229 230 229 230 233 237 244 251 257 259 261 263 271 280 285 290 293 294 296 297 300 302 304 307 309 310 310 312 313 313 313 313 310 298 292 286 283 280 278 275
234 231 229 229 229 228 229 233 236 242 250 254 255 256 257 264 277 286 291 293 295 295 297 297 300 303 308 312 313 314 314 314 314 314 310 306 301 292 285 281 278 277 277
234 231 230 228 228 228 229 231 234 239 247 251 253 252 256 267 279 289 292 293 293 297 296 296 300 305 311 316 315 314 308 304 301 302 302 295 296 293 287 283 280 279 274
234 231 228 226 227 227 228 229 232 238 243 247 250 250 257 271 281 288 291 289 295 296 302 307 307 308 305 305 302 302 298 302 300 300 300 300 300 297 293 284 277 275 281
231 229 226 226 225 226 226 228 232 236 241 245 248 249 258 270 285 288 284 289 289 295 297 295 292 289 296 299 300 298 296 297 297 301 297 296 294 294 291 286 287 284 286
228 227 225 225 224 225 225 228 233 235 239 244 248 252 262 279 283 281 284 288 291 285 278 286 288 289 296 300 301 298 292 291 288 291 291 289 289 283 285 290 289 286 286
226 225 225 225 223 222 223 227 231 233 236 240 247 257 271 279 277 280 287 293 299 304 304 303 296 296 294 297 296 295 295 292 289 289 289 279 292 284 290 291 290 285 282
223 222 224 225 223 221 222 226 229 230 234 244 253 257 268 268 281 286 289 297 298 300 303 298 293 291 291 293 292 290 286 288 286 285 285 278 282 283 283 284 287 283 279
225 223 222 223 223 221 221 225 228 230 236 242 247 254 260 274 279 284 287 300 294 298 302 301 303 302 302 305 307 294 292 289 285 287 291 279 278 280 282 281 280 275 277